Location: Barruelo
(41.2448°N, 3.8231°W)
Time: 06:10:30
(UTC+00:00)

Daily predictions for brighter satellites

Satellite Brightness Start Highest point End
(mag) Time Altitude Azimuth Time Altitude Azimuth Time Altitude Azimuth
Cosmos 1697 Rocket 3.3 18:12:00 10° SW 18:17:32 64° WNW 18:23:09 10° NNE
NOSS 3-1 (A) 4.3 18:10:33 10° NW 18:18:17 87° WSW 18:27:18 10° SSE
Cosmos 1766 4.5 18:20:03 10° SE 18:23:04 22° E 18:26:06 10° NE
ARGOS Delta rocket 4.4 18:20:35 10° NNE 18:25:33 42° E 18:30:15 10° SSE
COSMO-SKYMED 1 2.6 18:23:46 10° NNE 18:28:08 89° ESE 18:32:29 10° SSW
USA 215 4.1 18:22:44 10° NE 18:28:59 50° NNW 18:35:14 10° WSW
Cosmos 1733 3.1 18:26:08 10° S 18:29:51 63° E 18:33:33 10° NNE
Cosmos 1626 2.4 18:26:22 10° NNW 18:29:59 69° W 18:33:34 10° S
SKYMED 3 4.5 18:32:51 10° NNE 18:36:59 87° WNW 18:41:05 10° SSW
PSLV R/B 3.5 18:36:56 10° SSE 18:40:37 76° ENE 18:44:17 10° N
COBE Rocket 4.0 18:36:26 10° SSE 18:41:09 52° ENE 18:45:47 10° N
Cosmos 1741 Rocket 4.0 18:36:58 10° SSW 18:42:14 82° ESE 18:47:32 10° NNE
Hubble Space Telescope 3.3 18:44:36 10° SSW 18:45:40 11° S 18:46:43 10° S
Cosmos 2227 Rocket 3.8 18:42:41 10° NW 18:47:53 38° WSW 18:53:03 10° S
Cosmos 1470 4.1 18:47:21 10° SE 18:49:57 18° E 18:52:32 10° NE
Cosmos 1242 Rocket 3.4 18:46:59 10° SSW 18:50:27 52° WNW 18:53:56 10° N
CZ-2C R/B 3.4 18:49:26 10° SW 18:50:42 12° SSW 18:51:57 10° S
Cosmos 2322 Rocket 3.3 18:47:26 10° SSE 18:51:36 21° E 18:55:48 10° NE
Meteor 2-10 4.2 18:47:26 10° S 18:53:06 82° E 18:58:39 10° NNE
CZ-4B R/B 3.1 18:49:01 10° SSE 18:54:20 71° ENE 18:59:47 10° N
Cosmos 1908 Rocket 4.0 18:50:40 10° SSE 18:54:40 38° E 18:58:41 10° NNE
Cosmos 1980 Rocket 2.8 18:53:10 10° SW 18:58:43 60° WNW 19:04:17 10° NNE
IRIDIUM 103 4.3 18:53:40 10° SSE 18:58:46 60° E 19:03:54 10° N
Meteor 2-21 4.3 18:54:48 10° S 19:00:48 74° E 19:06:50 10° NNE
Okean O Rocket 1.6 18:58:36 10° SSE 19:02:52 60° ENE 19:07:11 10° N
USA 267 3.3 18:56:25 10° SE 19:02:58 83° SW 19:09:35 10° NW
ASTEX 1 4.2 19:02:41 10° N 19:07:34 56° W 19:12:25 10° SSW
YAOGAN 1 2.5 19:03:24 10° SSE 19:07:43 84° ENE 19:12:03 10° N
Cosmos 1674 Rocket 3.5 19:05:15 10° N 19:09:41 88° E 19:14:07 10° S
Nadezhda 4 Rocket 3.9 19:04:06 10° S 19:10:23 73° E 19:16:42 10° N
HJ-1C 3.1 19:09:45 10° S 19:12:51 85° WSW 19:15:59 10° NNW
Cosmos 2285 Rocket 4.1 19:06:44 10° N 19:12:58 54° ENE 19:18:25 14° SE
SJ-6B 3.8 19:16:16 26° ENE 19:16:16 26° ENE 19:19:08 10° NNE
Cosmos 1726 2.7 19:12:41 10° SSW 19:16:16 57° W 19:19:53 10° N
IRIDIUM 106 4.3 19:11:49 10° S 19:17:02 88° E 19:22:17 10° N
BREEZE-M DEB (TANK) 2.3 19:15:41 10° NW 19:17:56 70° NNE 19:19:17 34° ESE
Cosmos 2278 3.9 19:12:23 10° SSW 19:18:04 76° WNW 19:23:47 10° NNE
Cosmos 1025 Rocket 4.4 19:15:13 10° NNE 19:17:55 22° ENE 19:17:55 22° ENE
Timation 2 Rocket 4.0 19:13:07 10° NNW 19:19:33 87° WSW 19:25:41 10° SSE
SL-16 R/B 2.3 19:14:39 10° S 19:20:08 53° ESE 19:25:38 10° NNE
Feng Yun 1-1 Rocket 4.1 19:15:35 10° SSE 19:21:04 73° ENE 19:26:29 10° N
ISS -3.9 19:19:00 10° NW 19:22:23 80° NE 19:23:09 50° ESE
CZ-4 R/B 1.4 19:19:38 10° SSE 19:23:48 90° ESE 19:28:01 10° NNW
Cosmos 1844 Rocket 3.8 19:20:38 10° N 19:25:11 24° NE 19:26:00 23° ENE
Cosmos 1437 Rocket 2.5 19:21:54 10° S 19:25:38 71° E 19:29:21 10° NNE
OAO 2 Rocket 3.9 19:21:59 10° WSW 19:26:34 40° S 19:28:11 30° SE
Cosmos 968 Rocket 3.4 19:21:55 10° S 19:27:08 72° ESE 19:32:22 10° NNE
Meteor 1-24 Rocket 3.8 19:26:23 10° N 19:31:31 47° ENE 19:33:29 32° SE
Meteor 1-12 Rocket 4.4 19:26:15 10° SSW 19:32:14 82° W 19:38:18 10° N
SL-4 R/B 2.6 19:30:01 10° NW 19:34:25 50° NNE 19:35:32 41° ENE
Cosmos 1975 Rocket 3.8 19:31:58 10° N 19:35:26 35° ENE 19:35:26 35° ENE
IRS-1C Rocket 4.4 19:35:29 37° ESE 19:36:38 43° ENE 19:41:35 10° N
Lacrosse 4 Rocket 3.1 19:37:39 10° S 19:38:52 18° S 19:38:52 18° S
Meteor 1-22 Rocket 4.0 19:36:59 10° S 19:42:20 76° E 19:47:53 10° NNE
Cosmos 2263 Rocket 2.8 19:38:11 10° NNW 19:43:44 55° WSW 19:49:16 10° S
USA 186 3.0 19:48:00 34° N 19:48:00 34° N 19:50:02 10° N
Cosmos 1092 Rocket 3.9 19:43:22 10° S 19:49:41 83° E 19:55:59 10° N
Resurs 01 Rocket 3.7 19:52:09 15° NNE 19:52:09 15° NNE 19:53:15 10° NNE
Cosmos 2227 4.2 19:48:34 10° NNW 19:54:12 78° WSW 19:56:57 31° SSE
BREEZE-M DEB (TANK) 4.5 19:50:16 10° SSW 19:57:46 28° SSE 19:57:46 28° SSE
CSL-04 Debris 4.1 20:00:01 35° S 20:02:24 85° WSW 20:07:49 10° NNW
Cosmos 1570 Rocket 4.1 20:01:02 10° NNW 20:06:17 72° WSW 20:07:49 45° S
Resurs 1-3 4.2 20:07:33 47° N 20:07:33 47° N 20:10:46 10° N
BREEZE M DEB (TANK) 2.7 20:01:02 10° WSW 20:06:45 64° WNW 20:06:45 64° WNW
Cosmos 2360 Rocket 3.4 20:01:57 10° S 20:14:25 - NNE 20:04:23 26° S
Okean-O 2.7 20:11:07 72° NW 20:11:07 72° NW 20:15:08 10° NNW
Meteor 2-5 Rocket 3.9 20:05:56 10° NNW 20:11:25 66° W 20:14:15 29° S
Landsat 7 4.3 20:21:25 54° NNW 20:21:25 54° NNW 20:25:05 10° NNW
CSL-04 Rocket 4.2 20:29:12 44° SW 20:30:26 54° W 20:35:43 10° NNW
Cosmos 2322 Rocket 2.8 20:29:37 10° SW 20:35:11 54° WNW 20:40:48 10° NNE
Cosmos 1553 Rocket 4.4 20:54:33 10° NNW 21:00:22 60° WNW 21:00:22 60° WNW
SL-16 R/B 4.3 21:00:00 10° WSW 21:04:32 24° NW 21:09:07 10° N
Cosmos 1844 Rocket 3.9 21:03:53 10° NNW 21:07:39 39° WNW 21:07:39 39° WNW
